When you browse on this site, cookies collect data to enhance your experience and personalize the content and advertising you see.
Visit our Privacy Policy to learn more. By continuing to use the site, you agree to this use of cookies and data.
  • In Hungary
  • List of Countries
  • For 7 days
  • Water Temperature
  • Weather Map
  • News
  • Weather Widgets
  • user-avatar
    Login

    Hourly Weather Starye Polya

    Today, 22 January, Wednesday

    Time Temperature Precipitation Wind Pressure Humidity
    00:00 -3°C° 0 mm 6 mps 731 mmHg 76%
    01:00 -3°C° 0 mm 6 mps 731 mmHg 76%
    02:00 -2°C° 0 mm 5 mps 731 mmHg 77%
    03:00 -2°C° 0 mm 5 mps 730 mmHg 79%
    04:00 -2°C° 0 mm 5 mps 729 mmHg 80%
    05:00 -2°C° 0 mm 5 mps 728 mmHg 82%
    06:00 -2°C° 0.2 mm 5 mps 728 mmHg 85%
    07:00 -2°C° 0.2 mm 5 mps 727 mmHg 89%
    08:00 -2°C° 0.2 mm 5 mps 727 mmHg 92%
    09:00 -2°C° 0.6 mm 5 mps 726 mmHg 91%
    10:00 -2°C° 0.6 mm 5 mps 726 mmHg 89%
    11:00 -2°C° 0.6 mm 5 mps 725 mmHg 87%
    12:00 -2°C° 0.2 mm 5 mps 726 mmHg 82%
    13:00 -2°C° 0.2 mm 5 mps 726 mmHg 76%
    14:00 -2°C° 0.2 mm 5 mps 726 mmHg 71%
    15:00 -4°C° 0 mm 5 mps 727 mmHg 73%
    16:00 -4°C° 0 mm 5 mps 727 mmHg 76%
    17:00 -5°C° 0 mm 5 mps 728 mmHg 78%
    18:00 -5°C° 0 mm 5 mps 728 mmHg 78%
    19:00 -5°C° 0 mm 5 mps 729 mmHg 78%
    20:00 -5°C° 0 mm 5 mps 729 mmHg 78%
    21:00 -6°C° 0.1 mm 6 mps 730 mmHg 79%
    22:00 -6°C° 0.1 mm 6 mps 730 mmHg 79%
    23:00 -6°C° 0.1 mm 6 mps 730 mmHg 80%

    Tomorrow, 23 January, Thursday

    Time Temperature Precipitation Wind Pressure Humidity
    00:00 -8°C° 0.1 mm 6 mps 731 mmHg 78%
    01:00 -8°C° 0.1 mm 6 mps 732 mmHg 76%
    02:00 -8°C° 0.1 mm 6 mps 733 mmHg 74%
    03:00 -8°C° 0.1 mm 6 mps 733 mmHg 70%
    04:00 -9°C° 0.1 mm 6 mps 734 mmHg 67%
    05:00 -9°C° 0.1 mm 6 mps 734 mmHg 63%
    06:00 -9°C° 0 mm 6 mps 735 mmHg 62%
    07:00 -9°C° 0 mm 6 mps 735 mmHg 61%
    08:00 -9°C° 0 mm 6 mps 736 mmHg 60%
    09:00 -8°C° 0 mm 6 mps 736 mmHg 59%
    10:00 -8°C° 0 mm 6 mps 736 mmHg 58%
    11:00 -6°C° 0 mm 6 mps 736 mmHg 57%
    12:00 -6°C° 0 mm 6 mps 736 mmHg 60%
    13:00 -7°C° 0 mm 7 mps 736 mmHg 63%
    14:00 -6°C° 0 mm 7 mps 736 mmHg 67%
    15:00 -6°C° 0 mm 6 mps 737 mmHg 66%
    16:00 -6°C° 0 mm 5 mps 737 mmHg 66%
    17:00 -6°C° 0 mm 5 mps 737 mmHg 65%
    18:00 -5°C° 0 mm 4 mps 737 mmHg 68%
    19:00 -5°C° 0 mm 3 mps 738 mmHg 70%
    20:00 -6°C° 0 mm 3 mps 738 mmHg 72%
    21:00 -5°C° 0 mm 2 mps 738 mmHg 76%
    22:00 -5°C° 0 mm 2 mps 738 mmHg 80%
    23:00 -5°C° 0 mm 2 mps 738 mmHg 84%

    Day after tomorrow, 24 January, Friday

    Time Temperature Precipitation Wind Pressure Humidity
    00:00 -5°C° 0 mm 2 mps 737 mmHg 86%
    01:00 -5°C° 0 mm 3 mps 737 mmHg 89%
    02:00 -5°C° 0 mm 3 mps 736 mmHg 91%
    03:00 -5°C° 0 mm 4 mps 735 mmHg 90%
    04:00 -4°C° 0 mm 4 mps 734 mmHg 88%
    05:00 -5°C° 0 mm 5 mps 733 mmHg 86%
    06:00 -5°C° 0.3 mm 5 mps 733 mmHg 89%
    07:00 -4°C° 0.3 mm 5 mps 732 mmHg 93%
    08:00 -4°C° 0.3 mm 5 mps 731 mmHg 96%
    09:00 -2°C° 0.4 mm 4 mps 731 mmHg 96%
    10:00 -1°C° 0.4 mm 4 mps 730 mmHg 96%
    11:00 0°C° 0.4 mm 4 mps 730 mmHg 96%
    12:00 0°C° 0.2 mm 4 mps 729 mmHg 96%
    13:00 +1°C° 0.2 mm 5 mps 729 mmHg 96%
    14:00 +1°C° 0.2 mm 5 mps 729 mmHg 95%
    15:00 +1°C° 0.1 mm 5 mps 729 mmHg 94%
    16:00 0°C° 0.1 mm 5 mps 729 mmHg 93%
    17:00 0°C° 0.1 mm 5 mps 729 mmHg 92%
    18:00 -1°C° 0 mm 4 mps 730 mmHg 91%
    19:00 -1°C° 0 mm 4 mps 730 mmHg 91%
    20:00 -1°C° 0 mm 3 mps 730 mmHg 90%
    21:00 -1°C° 0 mm 3 mps 730 mmHg 91%
    22:00 -1°C° 0 mm 3 mps 730 mmHg 92%
    23:00 -2°C° 0 mm 3 mps 729 mmHg 94%

    25 January, Saturday

    Time Temperature Precipitation Wind Pressure Humidity
    00:00 -1°C° 0.1 mm 3 mps 729 mmHg 95%
    01:00 -1°C° 0.1 mm 3 mps 729 mmHg 95%
    02:00 0°C° 0.1 mm 3 mps 729 mmHg 96%
    03:00 0°C° 0 mm 3 mps 729 mmHg 95%
    04:00 0°C° 0 mm 3 mps 728 mmHg 94%
    05:00 0°C° 0 mm 3 mps 728 mmHg 92%
    06:00 0°C° 0 mm 3 mps 728 mmHg 92%
    07:00 -1°C° 0 mm 4 mps 728 mmHg 91%
    08:00 -1°C° 0 mm 4 mps 728 mmHg 91%
    09:00 -1°C° 0 mm 4 mps 728 mmHg 87%
    10:00 -1°C° 0 mm 4 mps 728 mmHg 83%
    11:00 -1°C° 0 mm 5 mps 727 mmHg 79%
    12:00 -1°C° 0 mm 5 mps 727 mmHg 76%
    13:00 -2°C° 0 mm 6 mps 727 mmHg 72%
    14:00 -1°C° 0 mm 6 mps 726 mmHg 69%
    15:00 -2°C° 0.3 mm 7 mps 727 mmHg 69%
    16:00 -2°C° 0.3 mm 7 mps 727 mmHg 69%
    17:00 -3°C° 0.3 mm 7 mps 727 mmHg 69%
    18:00 -4°C° 0 mm 7 mps 728 mmHg 69%
    19:00 -4°C° 0 mm 7 mps 729 mmHg 69%
    20:00 -5°C° 0 mm 6 mps 729 mmHg 70%
    21:00 -5°C° 0 mm 6 mps 730 mmHg 70%
    22:00 -5°C° 0 mm 6 mps 730 mmHg 71%
    23:00 -5°C° 0 mm 5 mps 731 mmHg 72%

    26 January, Sunday

    Time Temperature Precipitation Wind Pressure Humidity
    00:00 -6°C° 0 mm 5 mps 731 mmHg 74%
    01:00 -6°C° 0 mm 5 mps 732 mmHg 76%
    02:00 -6°C° 0 mm 5 mps 732 mmHg 78%
    03:00 -6°C° 0 mm 5 mps 733 mmHg 79%
    04:00 -6°C° 0 mm 5 mps 733 mmHg 80%
    05:00 -6°C° 0 mm 5 mps 734 mmHg 81%
    06:00 -5°C° 0 mm 4 mps 734 mmHg 82%
    07:00 -5°C° 0 mm 4 mps 735 mmHg 82%
    08:00 -5°C° 0 mm 3 mps 736 mmHg 82%
    09:00 -5°C° 0 mm 3 mps 736 mmHg 80%
    10:00 -4°C° 0 mm 3 mps 737 mmHg 78%
    11:00 -2°C° 0 mm 3 mps 738 mmHg 76%
    12:00 -2°C° 0 mm 3 mps 738 mmHg 76%
    13:00 -2°C° 0 mm 2 mps 738 mmHg 76%
    14:00 -2°C° 0 mm 2 mps 739 mmHg 76%
    15:00 -3°C° 0 mm 2 mps 739 mmHg 81%
    16:00 -1°C° 0 mm 1 mps 739 mmHg 86%
    17:00 -2°C° 0 mm 1 mps 740 mmHg 91%
    18:00 -2°C° 0 mm 1 mps 740 mmHg 92%
    19:00 -2°C° 0 mm 1 mps 740 mmHg 93%
    20:00 -2°C° 0 mm 1 mps 740 mmHg 94%
    21:00 -2°C° 0 mm 1 mps 740 mmHg 95%
    22:00 -4°C° 0 mm 2 mps 741 mmHg 95%
    23:00 -4°C° 0 mm 2 mps 741 mmHg 95%

    27 January, Monday

    Time Temperature Precipitation Wind Pressure Humidity
    00:00 -4°C° 0 mm 2 mps 741 mmHg 95%
    01:00 -4°C° 0 mm 3 mps 740 mmHg 95%
    02:00 -4°C° 0 mm 3 mps 740 mmHg 95%
    03:00 -4°C° 0.1 mm 3 mps 740 mmHg 95%
    04:00 -4°C° 0.1 mm 3 mps 739 mmHg 95%
    05:00 -2°C° 0.1 mm 3 mps 739 mmHg 96%
    06:00 -3°C° 0.3 mm 4 mps 739 mmHg 96%
    07:00 -3°C° 0.3 mm 4 mps 738 mmHg 96%
    08:00 -3°C° 0.3 mm 4 mps 738 mmHg 97%
    09:00 -2°C° 0.4 mm 4 mps 738 mmHg 96%
    10:00 -2°C° 0.4 mm 4 mps 738 mmHg 96%
    11:00 -2°C° 0.4 mm 4 mps 738 mmHg 96%
    12:00 -1°C° 0 mm 4 mps 737 mmHg 93%
    13:00 -1°C° 0 mm 4 mps 737 mmHg 91%
    14:00 -1°C° 0 mm 4 mps 736 mmHg 89%
    15:00 -1°C° 0 mm 4 mps 736 mmHg 91%
    16:00 -2°C° 0 mm 4 mps 735 mmHg 94%
    17:00 -2°C° 0 mm 4 mps 735 mmHg 97%
    18:00 -2°C° 0.2 mm 4 mps 735 mmHg 96%
    19:00 -2°C° 0.2 mm 4 mps 734 mmHg 96%
    20:00 -2°C° 0.2 mm 4 mps 734 mmHg 96%
    21:00 -2°C° 0.3 mm 4 mps 733 mmHg 96%
    22:00 -2°C° 0.3 mm 4 mps 733 mmHg 96%
    23:00 -2°C° 0.3 mm 4 mps 733 mmHg 97%
    Show more